AP586 Weather Reports


Display with metric or nautical units.
time (UTC)temp
F
wind
direction
speed
MPH
gust
MPH
rain 1hr
in
rain 24hr
in
rain mn
in
humidity
%
barometer
mb
20240623020017 63 36 0.0 5.0 0.00 0.20 0.20 92 1013.7
20240623014515 63 51 1.0 3.0 0.00 0.20 0.20 93 1013.8
20240623013028 63 40 1.0 4.0 0.00 0.20 0.20 92 1013.6
20240623011522 63 26 1.0 4.0 0.00 0.20 0.20 92 1013.5
20240623010016 63 36 0.0 4.0 0.00 0.30 0.20 92 1013.6
20240623004512 64 52 0.0 5.0 0.00 0.30 0.20 92 1013.5
20240623003016 64 40 1.0 3.0 0.00 0.30 0.20 92 1013.4
20240623001511 64 34 1.0 4.0 0.00 0.30 0.20 92 1013.4
20240623000010 64 19 1.0 4.0 0.00 0.78 0.20 92 1013.5
20240622234509 64 316 0.0 2.0 0.00 0.78 0.20 92 1013.5
20240622233008 64 33 3.0 5.0 0.00 0.78 0.20 92 1013.3
20240622231508 64 32 2.0 5.0 0.00 0.78 0.20 92 1013.1
20240622230008 64 49 1.0 5.0 0.00 0.92 0.20 92 1013.1
20240622224506 64 46 0.0 4.0 0.01 0.92 0.20 92 1013.3
20240622223009 64 30 1.0 4.0 0.05 0.92 0.20 92 1013.3
20240622221504 63 26 0.0 5.0 0.08 0.92 0.20 91 1013.4
20240622220003 63 34 1.0 5.0 0.11 0.92 0.20 91 1013.4
20240622214501 63 54 0.0 3.0 0.12 0.91 0.19 90 1013.9
20240622213115 63 61 1.0 5.0 0.12 0.87 0.15 89 1013.8
20240622211559 64 35 3.0 7.0 0.11 0.84 0.12 88 1013.4
20240622210058 64 57 1.0 6.0 0.08 0.81 0.09 87 1013.6
20240622204602 65 55 2.0 5.0 0.06 0.79 0.07 86 1013.7
20240622203058 67 54 3.0 9.0 0.02 0.75 0.03 83 1013.5
20240622201611 68 95 3.0 9.0 0.00 0.73 0.01 80 1014.0
20240622200057 69 13 3.0 8.0 0.00 0.73 0.01 78 1013.9
20240622194554 70 21 3.0 8.0 0.00 0.73 0.01 77 1014.1
20240622193054 71 62 2.0 8.0 0.00 0.73 0.01 77 1014.0
20240622191549 71 55 2.0 8.0 0.00 0.73 0.01 77 1013.9
20240622190049 71 34 2.0 9.0 0.00 0.73 0.01 77 1013.9
20240622184551 71 87 3.0 8.0 0.00 0.73 0.01 77 1014.2
20240622183055 72 47 2.0 7.0 0.00 0.73 0.01 77 1014.1
20240622181551 71 51 2.0 9.0 0.00 0.73 0.01 79 1014.2
20240622180045 71 113 1.0 8.0 0.00 0.73 0.01 78 1014.3
20240622174551 71 101 2.0 6.0 0.00 0.73 0.01 77 1014.3
20240622173043 72 49 2.0 5.0 0.00 0.73 0.01 76 1014.3
20240622171544 72 76 3.0 8.0 0.00 0.73 0.01 77 1014.3
20240622170043 72 86 2.0 7.0 0.00 0.73 0.01 76 1014.6
20240622164538 72 36 1.0 7.0 0.00 0.73 0.01 77 1014.8
20240622163036 71 30 3.0 7.0 0.00 0.73 0.01 77 1014.8
20240622161536 71 34 2.0 6.0 0.00 0.73 0.01 79 1014.8
20240622160034 71 80 3.0 9.0 0.00 0.73 0.01 79 1014.8
20240622154532 71 31 4.0 9.0 0.00 0.73 0.01 80 1015.0
20240622153105 70 97 2.0 8.0 0.01 0.73 0.01 81 1015.0
20240622151526 70 78 1.0 4.0 0.01 0.73 0.01 83 1015.0
20240622150025 69 78 1.0 5.0 0.01 0.73 0.01 84 1014.8
20240622144524 69 88 2.0 7.0 0.01 0.73 0.01 84 1014.9
20240622143023 69 50 1.0 9.0 0.00 0.72 0.00 85 1015.1
20240622141523 69 57 1.0 6.0 0.00 0.72 0.00 85 1015.1
20240622140021 69 48 1.0 6.0 0.00 0.72 0.00 86 1015.3
20240622134520 69 64 1.0 3.0 0.00 0.72 0.00 87 1015.5
20240622133021 69 46 3.0 6.0 0.00 0.72 0.00 89 1015.4
20240622131517 69 125 0.0 3.0 0.00 0.72 0.00 89 1015.2
20240622130014 68 128 0.0 2.0 0.00 0.72 0.00 90 1015.4
20240622124515 67 128 0.0 2.0 0.00 0.72 0.00 91 1015.4
20240622123011 67 128 0.0 2.0 0.00 0.72 0.00 91 1015.5
20240622121507 66 129 0.0 2.0 0.00 0.72 0.00 91 1015.4
20240622120005 66 116 0.0 2.0 0.00 0.72 0.00 91 1015.5
20240622114505 65 105 0.0 0.0 0.00 0.72 0.00 92 1015.6
20240622113002 65 105 0.0 2.0 0.00 0.72 0.00 92 1015.7
20240622111504 65 113 0.0 0.0 0.00 0.72 0.00 93 1015.6
20240622110001 65 113 0.0 0.0 0.00 0.72 0.00 93 1015.6
20240622104600 65 113 0.0 0.0 0.00 0.72 0.00 93 1015.5
20240622103059 65 113 0.0 0.0 0.00 0.72 0.00 93 1015.6
20240622101604 64 113 0.0 0.0 0.00 0.72 0.00 93 1015.5
20240622100058 64 113 0.0 0.0 0.00 0.72 0.00 93 1015.2
20240622094557 65 113 0.0 0.0 0.00 0.72 0.00 93 1015.2
20240622093055 65 113 0.0 2.0 0.00 0.72 0.00 94 1015.3
20240622091557 65 205 0.0 0.0 0.00 0.72 0.00 94 1015.4
20240622090053 65 216 0.0 0.0 0.00 0.72 0.00 94 1015.4
20240622084552 65 216 0.0 0.0 0.00 0.72 0.00 94 1015.4
20240622083050 65 216 0.0 0.0 0.00 0.72 0.00 94 1015.4
20240622081553 65 217 0.0 0.0 0.00 0.72 0.00 94 1015.6
20240622080047 65 216 0.0 0.0 0.00 0.72 0.00 94 1015.6
20240622074549 65 216 0.0 0.0 0.00 0.72 0.00 94 1015.7
20240622073043 65 216 0.0 2.0 0.00 0.72 0.00 94 1016.0
20240622071544 65 216 0.0 4.0 0.00 0.72 0.00 94 1016.2
20240622070043 65 217 0.0 5.0 0.00 0.72 0.00 94 1016.4
20240622064537 65 234 2.0 3.0 0.00 0.72 0.00 94 1016.8
20240622063035 65 236 0.0 1.0 0.00 0.72 0.00 94 1017.0
20240622061552 65 235 0.0 4.0 0.00 0.72 0.00 93 1016.8
20240622060033 64 240 0.0 3.0 0.00 0.72 0.00 94 1017.0
20240622054534 64 240 0.0 1.0 0.00 0.72 0.00 93 1017.0
20240622053031 64 240 0.0 2.0 0.00 0.72 0.00 93 1016.8
20240622051529 63 240 0.0 2.0 0.00 0.72 0.00 93 1016.8
20240622050029 63 240 0.0 2.0 0.00 0.72 0.00 93 1016.7
20240622044530 64 103 0.0 2.0 0.00 0.72 0.00 93 1016.7
20240622043030 64 103 1.0 3.0 0.00 0.72 0.00 92 1016.6
20240622041525 64 103 0.0 3.0 0.00 0.72 0.00 92 1016.7
20240622040020 64 100 0.0 3.0 0.00 0.72 0.72 92 1017.1
20240622034518 65 100 0.0 2.0 0.00 0.72 0.72 92 1017.1
20240622033016 65 100 0.0 3.0 0.00 0.72 0.72 92 1017.3
20240622031515 65 64 0.0 2.0 0.00 0.72 0.72 93 1017.3
20240622030018 65 62 0.0 1.0 0.00 0.72 0.72 93 1017.5
20240622024511 65 62 0.0 1.0 0.00 0.72 0.72 92 1017.7
20240622023011 64 62 0.0 1.0 0.00 0.72 0.72 92 1017.8
20240622021510 65 62 0.0 3.0 0.00 0.72 0.72 92 1018.1